Location: Saratoga Springs
(43.0831°N, 73.7850°W)
Time: 18:17:05
(UTC-04:00)

Tiros 1 - Pass Details

Date: 16 April 2024
Orbit: 624 x 657 km, 48.4° (Epoch: 28 May)

Event Time Altitude Azimuth Distance (km) Brightness Sun altitude
Rises 04:27:55 0° 270° (W) 2,911 - -17.9°
Reaches altitude 10° 04:30:19 10° 277° (W) 2,000 - -17.5°
Exits shadow 04:31:58 21° 286° (WNW) 1,420 8.5 -17.3°
Maximum altitude 04:34:45 46° 351° (N) 842 7.9 -16.8°
Drops below altitude 10° 04:39:10 10° 65° (ENE) 1,995 11.0 -16.2°
Sets 04:41:34 0° 71° (ENE) 2,903 12.1 -15.8°
